Minneapolis Flying Cloud, MN

1:30 PM CDT on April 22, 2018 (GMT -0500)
Flying Cloud

Weather History for KFCM - May, 2014

Change the Weather History Date:

Tuesday, May 6, 2014

  Actual Average Record
Temperature  
Mean Temperature 57 °F -  
Max Temperature 66 °F 65 °F 91 °F (2016)
Min Temperature 48 °F 44 °F 37 °F (2006)
Degree Days  
Heating Degree Days 8    
Growing Degree Days 7 (Base 50)    
Moisture  
Dew Point 35 °F    
Average Humidity 41    
Maximum Humidity 59    
Minimum Humidity 30    
Precipitation  
Precipitation 0.00 in - - ()
Sea Level Pressure  
Sea Level Pressure 29.86 in    
Wind  
Wind Speed 12 mph (East)    
Max Wind Speed 21 mph    
Max Gust Speed 30 mph    
Visibility 10 miles    
Events      
Averages and records for this station are not official NWS values.
T = Trace of Precipitation, MM = Missing Value Source: NWS Daily Summary

Daily Weather History Graph

Daily Weather History Graph

Search for Another Location

Airport or City:

Astronomy

May. 06, 2014 Rise Set
Actual Time 5:56 AM CDT 8:25 PM CDT
Civil Twilight 5:23 AM CDT 8:58 PM CDT
Nautical Twilight 4:42 AM CDT 9:39 PM CDT
Astronomical Twilight 3:56 AM CDT 10:26 PM CDT
Moon 12:16 PM CDT (5/6) 1:42 AM CDT (5/6)
Length of Visible Light 15h 34m
Length of Day
14h 28m
Waxing Crescent, 46% of the Moon is Illuminated
May 6
Waxing Crescent
May 6
First Quarter
May 14
Full
May 21
Last Quarter
May 28
New

Hourly Weather History & Observations

Time (CDT) Temp. Dew Point Humidity Pressure Visibility Wind Dir Wind Speed Gust Speed Precip Events Conditions
12:53 AM 52.0 °F 33.1 °F 49% 29.95 in 10.0 mi East 6.9 mph - N/A   Clear
1:53 AM 51.1 °F 34.0 °F 52% 29.94 in 10.0 mi East 6.9 mph - N/A   Clear
2:53 AM 51.1 °F 35.1 °F 54% 29.93 in 10.0 mi East 8.1 mph - N/A   Clear
6:53 AM 48.9 °F 35.1 °F 59% 29.95 in 10.0 mi ESE 10.4 mph - N/A   Clear
7:53 AM 51.1 °F 35.1 °F 54% 29.95 in 10.0 mi SE 16.1 mph 24.2 mph N/A   Clear
9:53 AM 57.0 °F 35.1 °F 44% 29.96 in 10.0 mi ESE 12.7 mph - N/A   Clear
10:53 AM 59.0 °F 35.1 °F 41% 29.91 in 10.0 mi SE 19.6 mph 29.9 mph N/A   Clear
11:53 AM 60.1 °F 33.1 °F 36% 29.90 in 10.0 mi ESE 20.7 mph 27.6 mph N/A   Clear
12:53 PM 63.0 °F 30.9 °F 30% 29.90 in 10.0 mi SE 18.4 mph 28.8 mph N/A   Clear
1:53 PM 64.0 °F 34.0 °F 33% 29.84 in 10.0 mi East 17.3 mph 25.3 mph N/A   Clear
2:53 PM 66.0 °F 34.0 °F 30% 29.83 in 10.0 mi ESE 13.8 mph 27.6 mph N/A   Clear
3:53 PM 64.9 °F 34.0 °F 32% 29.80 in 10.0 mi East 17.3 mph 26.5 mph N/A   Clear
4:53 PM 64.0 °F 34.0 °F 33% 29.79 in 6.0 mi ESE 18.4 mph 24.2 mph N/A   Haze
5:53 PM 64.9 °F 35.1 °F 33% 29.79 in 10.0 mi ESE 13.8 mph - N/A   Mostly Cloudy
6:53 PM 64.9 °F 36.0 °F 34% 29.77 in 9.0 mi ESE 13.8 mph 26.5 mph N/A   Partly Cloudy
7:53 PM 64.0 °F 36.0 °F 35% 29.78 in 10.0 mi East 11.5 mph - N/A   Partly Cloudy
8:53 PM 62.1 °F 37.0 °F 39% 29.79 in 10.0 mi East 10.4 mph - N/A   Partly Cloudy
9:53 PM 61.0 °F 37.9 °F 42% 29.81 in 10.0 mi East 11.5 mph - N/A   Overcast
10:53 PM 60.1 °F 37.9 °F 44% 29.80 in 10.0 mi East 11.5 mph - N/A   Mostly Cloudy
11:53 PM 57.9 °F 37.9 °F 47% 29.78 in 10.0 mi East 10.4 mph 20.7 mph N/A   Overcast